Location: Bramblewood
(38.3882°N, 75.1802°W)
Time: 19:30:48
(UTC+00:00)

Daily predictions for brighter satellites

Satellite Brightness Start Highest point End
(mag) Time Altitude Azimuth Time Altitude Azimuth Time Altitude Azimuth
SL-16 R/B 3.6 22:06:58 10° SE 22:10:44 18° E 22:14:30 10° ENE
PAYLOAD B 4.3 22:06:13 10° SSE 22:11:48 83° ENE 22:17:24 10° NNW
Cosmos 2154 Rocket 4.1 22:08:20 10° N 22:14:34 56° E 22:20:46 10° SSE
Lacrosse 5 rocket 3.2 22:16:36 10° SE 22:18:09 12° ESE 22:19:42 10° E
H-2A R/B 2.2 22:14:40 10° N 22:18:50 76° WNW 22:23:04 10° SSW
Cosmos 1862 3.3 22:15:54 10° N 22:19:55 61° E 22:23:51 10° SSE
Landsat 5 4.4 22:15:56 10° N 22:20:14 55° WNW 22:24:36 10° SSW
ATLAS 5 CENTAUR R/B 3.5 22:16:30 10° NW 22:22:20 53° WSW 22:28:59 10° SSE
Abrixas rocket 3.1 22:20:27 10° NW 22:22:48 24° NNE 22:24:47 12° ENE
Cosmos 1867 4.2 22:19:31 10° S 22:24:25 36° ESE 22:29:22 10° NE
Cosmos 2333 Rocket 3.9 22:19:46 10° WSW 22:24:49 32° WNW 22:29:51 10° N
USA 281 4.1 22:21:00 10° ESE 22:26:08 25° NE 22:31:17 10° N
NOSS 0 Rocket 4.1 22:21:20 10° SSW 22:27:34 80° WNW 22:33:50 10° NNE
Cosmos 372 Rocket 4.4 22:23:44 10° NNW 22:28:52 69° WSW 22:34:00 10° S
Cosmos 1633 Rocket 4.4 22:26:27 10° NNE 22:29:24 17° ENE 22:32:19 10° ESE
COSMOS 2428 4.1 22:24:46 10° SW 22:30:03 37° WNW 22:35:22 10° N
Cosmos 1689 Rocket 3.9 22:29:44 14° ENE 22:30:27 15° E 22:32:11 10° SE
Cosmos 1356 4.5 22:31:27 10° NNE 22:34:15 23° ENE 22:37:03 10° SE
Cosmos 2298 Rocket 4.0 22:28:55 10° NNW 22:34:15 78° ENE 22:39:33 10° SSE
ISS -2.6 22:31:55 10° WSW 22:35:03 36° NNW 22:37:58 11° NE
Cosmos 1818 3.8 22:30:09 10° NNW 22:35:28 49° NE 22:40:44 10° SE
Cosmos 2150 Rocket 3.9 22:30:49 10° NNW 22:35:59 74° ENE 22:41:06 10° SSE
Cosmos 1939 Rocket 3.5 22:35:25 10° SE 22:38:48 30° ENE 22:42:13 10° N
ERS-2 2.1 22:36:33 10° NNE 22:40:10 60° ESE 22:43:47 10° S
Cosmos 2221 4.4 22:36:46 10° SW 22:40:41 32° WNW 22:44:36 10° NNW
Cosmos 2278 Rocket 2.1 22:37:01 10° NNW 22:42:44 80° ENE 22:48:23 10° SSE
CZ-4B R/B 1.0 22:40:50 10° NNE 22:43:54 80° ESE 22:46:59 10° S
BREEZE-M DEB (TANK) 3.9 22:44:48 10° SSW 22:48:21 19° SSE 22:49:52 15° ESE
Cosmos 2181 Rocket 4.3 22:43:12 10° SSE 22:49:20 48° E 22:55:26 10° NNE
SL-8 Rocket 4.3 22:43:30 10° N 22:49:22 41° ENE 22:55:14 10° SSE
TELKOM 3 4.5 22:46:56 10° W 22:49:29 32° NNW 22:50:44 19° NNE
IRS-1C Rocket 4.4 22:47:33 10° SE 22:52:31 44° ENE 22:57:30 10° N
Cosmos 1125 Rocket 3.4 22:47:53 10° NNW 22:53:05 74° ENE 22:58:17 10° SSE
YAOGAN 1 3.9 22:55:22 19° NE 22:55:22 19° NE 22:57:38 10° NNE
CZ-4B R/B 4.1 22:55:16 10° S 23:00:29 51° W 23:05:40 10° NNW
USA 215 3.7 22:54:20 11° NE 23:00:33 57° NW 23:06:55 10° WSW
Okean-O 3.3 22:57:21 10° SE 23:01:12 30° ENE 23:05:04 10° N
Meteor 2-12 Rocket 4.4 22:58:51 10° N 23:05:02 83° E 23:11:10 10° S
FengYun 1-2 T 4.5 22:59:35 10° S 23:05:08 74° WSW 23:10:41 10° NNW
Cosmos 2237 Rocket 3.1 23:01:41 10° SW 23:07:05 48° WNW 23:12:32 10° NNE
SL-24 R/B - RUBIN 2 4.1 23:01:42 10° NNW 23:07:55 84° ENE 23:13:21 10° SSE
NOAA 11 4.4 23:02:44 10° S 23:08:08 73° WSW 23:13:34 10° NNW
COSMO-SKYMED 1 2.5 23:04:02 10° NNE 23:08:25 83° ESE 23:12:44 10° S
EO 1 Delta rocket 4.4 23:06:49 10° NNE 23:12:11 62° E 23:18:59 10° S
CZ-4 R/B 4.4 23:08:44 10° SSE 23:12:47 56° ENE 23:16:51 10° N
Okean O Rocket 3.3 23:09:56 10° SSW 23:13:52 34° W 23:17:52 10° NNW
Cosmos 1933 3.2 23:11:17 10° S 23:15:18 86° E 23:19:06 12° N
SL-24 R/B 3.7 23:13:00 11° NNE 23:17:00 84° ESE 23:20:43 10° S
USA 81 3.9 23:15:28 10° N 23:20:45 71° E 23:26:01 10° S
Sich 1 3.5 23:16:29 10° NNW 23:20:49 61° W 23:25:05 10° S
PSLV R/B 3.7 23:20:05 19° NNE 23:22:54 85° ESE 23:26:56 10° SSW
Cosmos 2369 Rocket 4.1 23:20:55 10° N 23:22:06 13° NNE 23:22:06 13° NNE
X-37B 3.3 23:23:13 10° S 23:23:28 11° SSE 23:23:28 11° SSE
H-2A R/B 2.6 23:25:30 36° ENE 23:25:30 36° ENE 23:29:50 10° N
Helios 1A Rocket 2.8 23:24:34 10° SSE 23:28:32 59° ENE 23:32:29 10° N
SL-23 DEB 4.1 23:25:51 10° SW 23:29:27 67° SE 23:30:30 50° ENE
USA 267 3.3 23:27:58 32° E 23:30:52 55° NE 23:37:11 10° NW
Cosmos 2218 Rocket 3.8 23:27:26 10° N 23:33:36 79° E 23:39:44 10° S
Cosmos 1151 Rocket 3.1 23:30:02 10° SSW 23:34:19 73° W 23:37:28 18° N
Cosmos 773 Rocket 3.9 23:29:57 10° S 23:35:09 74° ESE 23:37:15 37° NNE
Cosmos 1666 Rocket 3.9 23:31:37 10° NNW 23:35:59 67° W 23:40:22 10° S
Cosmos 1782 3.2 23:32:11 10° S 23:35:12 48° SSE 23:35:12 48° SSE
Cosmos 1328 Rocket 3.6 23:33:36 10° S 23:37:53 77° W 23:40:18 26° N
Meteor 1-14 Rocket 4.3 23:39:43 10° N 23:45:33 55° ENE 23:51:24 10° SSE
Cosmos 2366 rocket 3.9 23:39:32 10° N 23:45:46 87° W 23:51:54 10° S
SL-24 DEB 4.4 23:41:40 10° N 23:46:26 76° W 23:51:08 10° SSW
BREEZE-M DEB (TANK) 3.3 23:37:40 10° SW 23:47:58 82° SE 23:48:28 70° ENE
Cosmos 2297 3.5 23:43:19 10° NNW 23:49:01 73° ENE 23:50:36 48° SE
SL-16 R/B 2.8 23:48:47 10° SW 23:54:19 56° WNW 23:57:38 24° N
